arxmliv
arxmliv build tool
 
KWARC group
LaTeXML
About
   
 

Detailed info

Back to Homepage

List of missing_macros

No. Date Filename num_warningnum_errornum_xmargok_xmargnum_xmathok_xmathMissing macros
80601 2013-03-15 03:54:41 /0904/0904.3209 2440000[\IAref, \Anotfoot, \Iref, {Authlist}, \Aref, \collaboration, {sidewaystable}, \Instfoot, \AAref, \submitted, \IIref]; 1 missing file[cernart.cls].
80602 2013-03-15 03:54:21 /0904/0904.3215 010000[{keywords}].
80603 2013-03-15 03:54:09 /0904/0904.3187 30150000[\Issue, \inst, \Month, \Reviseddate, \Receiveddate, \DOIsuffix, \Volume, \keywords, \pagespan, \subjclass, \Dateposted, \Year, \Accepteddate, {acknowledgement}]; 1 missing file[cppfig.sty].
80604 2013-03-15 03:54:09 /0904/0904.3197 210000[\cortext].
80605 2013-03-15 03:54:04 /0904/0904.3195 2210000[{linenomath}].
80606 2013-03-15 03:54:03 /0904/0904.3183 7340000[Align, \xymatrix, \ar]; 1 missing file[xy.sty].
80607 2013-03-15 03:53:49 /0904/0904.3203 040000[{theacknowledgments}, \layoutstyle, \classification]; 1 missing file[{aipcheck}].
80608 2013-03-15 03:53:48 /0904/0904.3123 110710000[Align, \restore, \save, \xymatrix, \frm, \hole, \ar]; 1 missing file[xy.sty].
80609 2013-03-15 03:53:14 /0904/0904.3175 1540000[{SCfigure}]; 1 missing file[sidecap.sty].
80610 2013-03-15 03:52:53 /0904/0904.3167 7840000[Align, \xymatrix, \ar]; 1 missing file[xy.sty].
80611 2013-03-15 03:52:13 /0904/0904.3165 8580000[\eval, {lemma}, \Eqnref, \Rv, {theorem}, \Thmref, \margin, \parfrac, \Xtil, \thmref, \xhat, \Vtil, \Xv, \ipmf, \sgn, \seq, \Yhat, \pmf, \xtil, {Proof}, \w, \Yv, Align, \goes, \paren, \Util, \tvec, \eqnlabel, \prob, \floor, \Smat, \limty, \Ytil, \bracket,
80612 2013-03-15 03:52:07 /0904/0904.3185 8290000[\affil, \apj, \apjl, \planss, \aap, \mnras, \apjs, \ion, \plotone, \araa, \acknowledgements, \plottwo]; 2 missing files[asp2006.sty, astrojournals.sty].
80613 2013-03-15 03:51:51 /0904/0904.3166 0180000[\figref, \unit, \tempK, \Ms, \thicknm, \exsitu, \definecolor, \insitu, \tabref, \tempdegC, \lengthnm, \thickAL, \diff, \ie]; 2 missing files[neel.sty, hypcap.sty].
80614 2013-03-15 03:51:43 /0904/0904.3133 5010000[\kms].
80615 2013-03-15 03:51:35 /0904/0904.3144 2910000[{centering}].
80616 2013-03-15 03:51:12 /0904/0904.3159 220000[\pdfpageheight, \pdfpagewidth].
80617 2013-03-15 03:51:08 /0904/0904.3146 110000[\subsubsubsection].
80618 2013-03-15 03:50:48 /0904/0904.3136 510000[\theappendix].
80619 2013-03-15 03:50:30 /0904/0904.3132 13110000[\snm, \startlocaldefs, \affiliation, \fnms, \runtitle, \endlocaldefs, \address, \runauthor, \printead, {frontmatter}, \ead]; 1 missing file[imsart.cls].
80620 2013-03-15 03:50:13 /0904/0904.3140 050000[\extrasenglish, \dateenglish, \captionsenglish]; 1 missing file[esint.sty].
80621 2013-03-15 03:50:00 /0904/0904.3117 7030000[{centering}].
80622 2013-03-15 03:49:29 /0904/0904.3116 620000[\theappendix, {comment}].
80623 2013-03-15 03:49:29 /0904/0904.3120 5050000[\dTo, \uTo, Align, \rTo, {diagram}].
80624 2013-03-15 03:49:26 /0904/0904.3073 9710000[\mathds].
80625 2013-03-15 03:48:23 /0904/0904.3078 1570000[{sidewaystable}, \@end@institute].
80626 2013-03-15 03:48:16 /0904/0904.3090 330000[Align, {BMAT}]; 1 missing file[easybmat.sty].
80627 2013-03-15 03:48:12 /0904/0904.3093 1920000[\EuScript, \downset].
80628 2013-03-15 03:47:44 /0904/0904.3081 10290000[{tablenotes}, {threeparttable}]; 1 missing file[threeparttable.sty].
80629 2013-03-15 03:47:43 /0904/0904.3080 420000[\smaller]; 1 missing file[lineno_babar_revtex.sty].
80630 2013-03-15 03:47:16 /0904/0904.3071 130000[{theacknowledgments}, \layoutstyle, \classification].
80631 2013-03-15 03:47:10 /0904/0904.3064 18160000[\young].
80632 2013-03-15 03:47:03 /0904/0904.3020 5310000[\@@atop].
80633 2013-03-15 03:46:43 /0904/0904.3050 750000[\mathinner].
80634 2013-03-15 03:46:20 /0904/0904.3052 310000[\ead].
80635 2013-03-15 03:46:12 /0904/0904.3038 7310000[\pr, {lemma}, {theorem}, \N, \rk, {fact}, \Z, {claim}, \Prufer, \End, \Frecon, \normal, {proposition}, {namedtheorem}, \PSL, \Q, \mathperiod, \gen, {hypothesis}, \Setst, \rr, {corollary}, \Altinel, \GL]; 1 missing file[burdges.sty].
80636 2013-03-15 03:46:08 /0904/0904.3037 1550000[{acknowledgments}, \includegraphics, \ShortTitle, \FullConference, \speaker]; 1 missing file[PoS.cls].
80637 2013-03-15 03:45:58 /0904/0904.3021 19670000[\drawdashline, \drawhollowdot, \drawthickdot, \drawdotline, \drawcenteredtext, \drawpath, \drawframebox].
80638 2013-03-15 03:45:50 /0904/0904.3045 5240000[Align, \xymatrix, \ar]; 1 missing file[xy.sty].
80639 2013-03-15 03:45:40 /0904/0904.2977 103140000[\kwd, \snm, \startlocaldefs, \affiliation, {keyword}, \fnms, \runtitle, \endlocaldefs, \address, \runauthor, \printead, \corref, {frontmatter}, \ead]; 1 missing file[imsart.cls].
80640 2013-03-15 03:45:31 /0904/0904.3032 1030000[\newsymbol].
80641 2013-03-15 03:45:21 /0904/0904.2992 105120000[Align, \xymatrix, \ar]; 9 missing files[xycurve.sty, xymatrix.sty, xyline.sty, xyarrow.sty, xycmtip.sty, xycolor.sty, xyrotate.sty, xyframe.sty, xygraph.sty].
80642 2013-03-15 03:45:08 /0904/0904.3002 37410000[\fmffreeze, {fmffile}, \fmf, \fmfipath, \fmfv, \fmfiv, \fmfposition, \fmfpen, {fmfgraph*}, \fmfleft, \fmfforce, \fmfright, \fmfiset, \fmfi].
80643 2013-03-15 03:45:02 /0904/0904.3033 040000[\extrasenglish, \geometry, \dateenglish, \captionsenglish].
80644 2013-03-15 03:44:49 /0904/0904.3025 0110000[\indexauthor, \suppressfulladdresses, \dateenglish, \altaffilmark, \extrasenglish, \SetYear, \listofauthors, \SetConfTitle, \addkeyword, \altaffiltext, \captionsenglish].
80645 2013-03-15 03:44:49 /0904/0904.3027 090000[\qTheorem, {fact}, \qCorollary, \rk, \qLemma, \normal, \Frecon, {proposition}]; 1 missing file[burdges.sty].
80646 2013-03-15 03:44:48 /0904/0904.3026 0110000[\indexauthor, \suppressfulladdresses, \dateenglish, \altaffilmark, \extrasenglish, \SetYear, \listofauthors, \SetConfTitle, \addkeyword, \altaffiltext, \captionsenglish].
80647 2013-03-15 03:44:47 /0904/0904.3006 210000[\rotcaption].
80648 2013-03-15 03:44:28 /0904/0904.3019 650000[Align, \xymatrix, \ar]; 2 missing files[xy.sty, mathbbol.sty].
80649 2013-03-15 03:44:25 /0904/0904.3003 1220000[\PACS]; 1 missing file[size11.clo.sty].
80650 2013-03-15 03:44:18 /0904/0904.3011 1520000[\authorblockN, \authorblockA]; 1 missing file[IEEEtran.cls].
80651 2013-03-15 03:44:11 /0904/0904.3004 010000[\cortext].
80652 2013-03-15 03:44:10 /0904/0904.3008 270000[\sodauthor, \rauthor, \address, \sodtitle, \lat, \PACS, \rtitle].
80653 2013-03-15 03:43:53 /0904/0904.2997 510000[\theappendix].
80654 2013-03-15 03:43:33 /0904/0904.2986 10610000[\square, \affil, \eqref, \corraddr, \address, \complement, \acks, \operatorname, \corrauth, \text, \affilnum, \received, \mathbb, \theoremstyle, \numberwithin, \keywords, {gather}, {gathered}, \restriction, \runningheads]; 1 missing file[oupau.cls].
80655 2013-03-15 03:43:29 /0904/0904.2931 141170000[\kwd, \snm, \startlocaldefs, \affiliation, {keyword}, \thankstext, \fnms, \runtitle, \endlocaldefs, {aug}, \address, \thanksref, \runauthor, \printead, {frontmatter}, \rowcolor, \ead]; 1 missing file[imsart.cls].
80656 2013-03-15 03:43:13 /0904/0904.2987 0170000[\RRresume, \titlehead, \RRprojet, \RRtitle, \makeRR, \RRetitle, \RRNo, \RRauthor, \RRtheme, \THNum, \authorhead, \RRabstract, \RRdate, \RRmotcle, \RCLille, \RRkeyword]; 1 missing file[RR.sty].
80657 2013-03-15 03:43:07 /0904/0904.2984 140000[\citeonline, \ead].
80658 2013-03-15 03:42:55 /0904/0904.2960 1570000[{xy}, Align, \txt, \xymatrix, \ar, \frm]; 1 missing file[xy.sty].
80659 2013-03-15 03:42:50 /0904/0904.2991 010000[\cortext].
80660 2013-03-15 03:42:15 /0904/0904.2968 010000[\cortext].
80661 2013-03-15 03:41:31 /0904/0904.2955 4920000[{proof}]; 1 missing file[QED.sty].
80662 2013-03-15 03:40:20 /0904/0904.2916 990000[\lto, \urto, \dto, \rto, \diagram, Align, \enddiagram, \drto]; 1 missing file[xy.sty].
80663 2013-03-15 03:40:17 /0904/0904.2918 3120000[\sslash]; 1 missing file[xy.sty].
80664 2013-03-15 03:39:21 /0904/0904.2901 590000[\medcirc, \medbullet, \subref].
80665 2013-03-15 03:39:10 /0904/0904.2900 110000[\D].
80666 2013-03-15 03:39:00 /0904/0904.2893 3720000[\drawedge, \node].
80667 2013-03-15 03:38:58 /0904/0904.2894 1910000[\mathinner].
80668 2013-03-15 03:38:31 /0904/0904.2892 2170000[\includegraphics, \colrule, \catchline, \botrule, \toprule, \tbl, \refcite, \keywords]; 1 missing file[ws.sty].
80669 2013-03-15 03:37:47 /0904/0904.2863 17200000[{lemma}, {theorem}, \mrm, {proof-lemma}, \mbf, \appendices, \eqdef, {proof-proposition}, \frqed, \IEEEmembership, \psfrag, {remark}, {proof-theorem}, \draftnote, {proposition}, {assumption}]; 2 missing files[jphmacros2e.sty, IEEEtran.cls].
80670 2013-03-15 03:37:41 /0904/0904.2848 5280000[\enddiagram, \dline, Align, \urline, \diagram, \arabic, \ulline]; 1 missing file[xy.sty].
80671 2013-03-15 03:37:19 /0904/0904.2841 1550000[\cyri, \textnumero]; 1 missing file[T2Aenc.def].
80672 2013-03-15 03:37:06 /0904/0904.2850 1350000[{comment}, \node, \arrow, {diagram}]; 1 missing file[xy.sty].
80673 2013-03-15 03:36:56 /0904/0904.2847 240000[Align, \xymatrix, \ar]; 1 missing file[xy.sty].
80674 2013-03-15 03:36:51 /0904/0904.2862 030000[\DN@, \next@, \FN@].
80675 2013-03-15 03:36:49 /0904/0904.2866 1740000[\ShortTitle, \email, \FullConference, \speaker]; 1 missing file[PoS.cls].
80676 2013-03-15 03:36:33 /0904/0904.2844 810000[{comment}].
80677 2013-03-15 03:36:26 /0904/0904.2843 7690000[\xymatrixcolsep, \xymatrix, \xymatrixrowsep, Align, {comment}, \SelectTips, \CompileMatrices, \ar]; 2 missing files[mrlart5.cls, xy.sty].
80678 2013-03-15 03:36:20 /0904/0904.2839 1040000[Align, \xymatrix, \ar]; 1 missing file[xy.sty].
80679 2013-03-15 03:36:09 /0904/0904.2834 5520000[\dashline, \righttoleftarrow].
80680 2013-03-15 03:36:06 /0904/0904.2846 060000[Align, \xymatrixcolsep, \xymatrix, \ar, \xymatrixrowsep]; 1 missing file[xy.sty].
80681 2013-03-15 03:36:02 /0904/0904.2814 7220000[\Bbb]; 1 missing file[ amssym.def].
80682 2013-03-15 03:35:44 /0904/0904.2831 4140000[{xy}, \ar]; 1 missing file[xy.sty].
80683 2013-03-15 03:35:37 /0904/0904.2842 630000[\affil, \acknowledgements]; 1 missing file[asp2006.sty].
80684 2013-03-15 03:35:25 /0904/0904.2829 780000[Align, \xymatrix, \ar]; 1 missing file[xy.sty].
80685 2013-03-15 03:34:02 /0904/0904.2797 3940000[Align, \fatslash, \xymatrix, \ar].
80686 2013-03-15 03:33:55 /0904/0904.2823 350000[\ShortTitle, \email, \FullConference, \acknowledgments, \speaker]; 1 missing file[PoS.cls].
80687 2013-03-15 03:33:40 /0904/0904.2810 030000[\extrasenglish, \dateenglish, \captionsenglish].
80688 2013-03-15 03:33:20 /0904/0904.2802 1670000[\affil, \Received, \FigureFile, \email, \Accepted, \KeyWords, \SetRunningHead]; 1 missing file[pasj00.cls].
80689 2013-03-15 03:33:16 /0904/0904.2775 1540000[\pdfadjustspacing].
80690 2013-03-15 03:33:00 /0904/0904.2803 1080000[\affil, \Received, \FigureFile, \email, \Accepted, \re, \KeyWords, \SetRunningHead]; 1 missing file[pasj00.cls].
80691 2013-03-15 03:32:58 /0904/0904.2753 128120000[\psfrag, \CompileMatrices]; 10 missing files[xycurve.sty, xymatrix.sty, xyline.sty, xyarrow.sty, xycmtip.sty, xycolor.sty, xyrotate.sty, xy.sty, xyframe.sty, xygraph.sty].
80692 2013-03-15 03:32:51 /0904/0904.2800 170000[\affil, \Received, \FigureFile, \email, \Accepted, \KeyWords, \SetRunningHead]; 1 missing file[pasj00.cls].
80693 2013-03-15 03:32:48 /0904/0904.2799 1130000[\affil, \apj, \aj, \re, \emissiontype, \pasj, \Received, \mnras, \Accepted, \email, \FigureFile, \SetRunningHead, \KeyWords]; 1 missing file[pasj00.cls].
80694 2013-03-15 03:32:43 /0904/0904.2804 280000[\affil, \Received, \FigureFile, \email, \Accepted, \re, \KeyWords, \SetRunningHead]; 1 missing file[pasj00.cls].
80695 2013-03-15 03:32:37 /0904/0904.2786 020000[\published]; 1 missing file[pslatex.sty].
80696 2013-03-15 03:31:32 /0904/0904.2765 1710000[\geometry].
80697 2013-03-15 03:31:32 /0904/0904.2777 280000[\editors, \affiliation, \jname, \pagerange, \acknowledgements, \keywords, \volume, \pubyear]; 1 missing file[iaus.cls].
80698 2013-03-15 03:31:22 /0904/0904.2763 1210000[\apj, \lesssim, \citep, \pasj, \aap, \Accepted, \email, \pasp, \araa, \KeyWords, \draft, \aj, \altaffilmark, \Received, \apjs, \mnras, \FigureFile, \gtrsim, \altaffiltext, \citet, \SetRunningHead]; 1 missing file[pasj00.cls].
80699 2013-03-15 03:31:12 /0904/0904.2751 9410000[\theappendix].
80700 2013-03-15 03:31:10 /0904/0904.2771 1580000[\citeyear, \affiliation, \maintext, \includegraphics, \thechapter, \@currentID, \shortciteN, \authors]; 1 missing file[pinchcr.cls].
80701 2013-03-15 03:30:51 /0904/0904.2772 6120000[{sidewaystable*}]; 2 missing files[threeparttable.sty, apjfonts.sty].
80702 2013-03-15 03:30:39 /0904/0904.2734 2040000[Align, \xymatrix, \ar]; 1 missing file[xy.sty].
80703 2013-03-15 03:30:33 /0904/0904.2754 680000[\pacs, \inst, \shortauthor, \institute, \acknowledgments, \Name, \etal, \REVIEW]; 1 missing file[epl2.cls].
80704 2013-03-15 03:30:16 /0904/0904.2755 0100000[\catchline, \gtrsim, \lesssim, \psfig, \text, \keywords]; 1 missing file[ws.sty].
80705 2013-03-15 03:29:58 /0904/0904.2729 11330000[\layoutstyle, \classification]; 1 missing file[{aipcheck}].
80706 2013-03-15 03:29:46 /0904/0904.2740 1510000[\theappendix].
80707 2013-03-15 03:29:37 /0904/0904.2732 040000[\theappendix, \ocis, \address, \email].
80708 2013-03-15 03:29:36 /0904/0904.2748 610000[\theappendix].
80709 2013-03-15 03:29:35 /0904/0904.2698 105550000[\co, \punfrac, \volumenumber, \proved, \issuenumber, \accepted, \subject, \doi, \tilde, {htmlabstract}, \mathfrak, \keyword, \Zbl, \address, \wwbar, \CAT, \papernumber, \givenname, \unpfrac, \bar, \hat, \makeop, \received, \mathbb, \pinlabel, \theoremsty
80710 2013-03-15 03:29:19 /0904/0904.2733 6220000[\cycleunreach, \cycleforward, \loopfakevol, \loopfake, \cyclenoexpvol, \cycleforwardvol, \cycleLB, \loopnoexpvol, \cycleunreachvol, \cyclefake, \loopttl, \loopttlvol, \cyclefakevol, \loopunreachvol, \FPeval, \loopnoexp, \cyclenoexp, \loopLBvol, \loopLB,
80711 2013-03-15 03:29:14 /0904/0904.2726 3050000[Align, \mathds, \xymatrix, \ar]; 1 missing file[xy.sty].
80712 2013-03-15 03:28:13 /0904/0904.2710 1150000[\prettyref, \psfrag].
80713 2013-03-15 03:28:06 /0904/0904.2724 060000[\citealt, \affil, \citep, \citet, \acknowledgements]; 1 missing file[asp2006.sty].
80714 2013-03-15 03:27:45 /0904/0904.2714 61660000[\co, \volumenumber, \proved, \issuenumber, \accepted, \subject, \doi, \tilde, \twoheadrightarrow, \mathfrak, \keyword, \Zbl, \address, \papernumber, \givenname, \bar, \received, {align*}, \mathbb, \theoremstyle, \disablesubscriptcorrection, \editor, \pro
80715 2013-03-15 03:27:35 /0904/0904.2708 4220000[{Authlist}, \docnum]; 1 missing file[cernart.cls].
80716 2013-03-15 03:27:22 /0904/0904.2719 680000[\tracingtabularx, \theoremnumbering]; 2 missing files[pst-poly.sty, pst-all.sty].
80717 2013-03-15 03:26:42 /0904/0904.2694 4110000[\psfrag].
80718 2013-03-15 03:26:38 /0904/0904.2716 010000[\email].
80719 2013-03-15 03:26:19 /0904/0904.2709 3180000[\ls, \iffontfound, \ifCUPmtlplainloaded, \affiliation, \ns, \volume, \pagerange, \checkfont, \pubyear]; 1 missing file[jfm.cls].
80720 2013-03-15 03:26:14 /0904/0904.2675 249450000[Align, \infer, \Mean]; 1 missing file[meaning.sty].
80721 2013-03-15 03:25:46 /0904/0904.2672 14810000[\geometry].
80722 2013-03-15 03:25:18 /0904/0904.2685 1670000[Align, \bysame, \SelectTips, \url, \xymatrix, \ar]; 1 missing file[xy.sty].
80723 2013-03-15 03:25:01 /0904/0904.2676 1420000[\includepdf]; 1 missing file[pdfpages.sty].
80724 2013-03-15 03:24:54 /0904/0904.2696 080000[\affil, \mnras, \apj, \citep, \ga, \aap, \la]; 1 missing file[asp2006.sty].
80725 2013-03-15 03:24:44 /0904/0904.2678 010000[\citeonline].
80726 2013-03-15 03:24:37 /0904/0904.2668 610000[\citeonline]; 1 missing file[IEEEtran.cls].
80727 2013-03-15 03:24:28 /0904/0904.2659 9120000[Align, \xymatrix, \ar]; 9 missing files[xycurve.sty, xymatrix.sty, xyline.sty, xyarrow.sty, xycmtip.sty, xycolor.sty, xyrotate.sty, xyframe.sty, xygraph.sty].
80728 2013-03-15 03:24:20 /0904/0904.2660 890000[\extrasenglish, \IEEEpeerreviewmaketitle, \dateenglish, \captionsenglish]; 2 missing files[IEEEtran.cls, soul.sty].
80729 2013-03-15 03:24:13 /0904/0904.2645 60280000[\firstname, {lemma}, \alttitle, {theorem}, \altkeywords, {rema}, {theo}, \keywords, \address, {altabstract}, \email, \subjclass, \psfrag, \lastname, {proof}]; 2 missing files[version.sty, archiclas.cls].
80730 2013-03-15 03:23:47 /0904/0904.2656 530000[\email, \institute, \keywords]; 1 missing file[ijuc.cls].
80731 2013-03-15 03:23:33 /0904/0904.2662 030000[\extrasenglish, \dateenglish, \captionsenglish].
80732 2013-03-15 03:23:21 /0904/0904.2634 1710000[\cortext].
80733 2013-03-15 03:23:20 /0904/0904.2661 1140000[\apj, \inst, \institute, \apjl, \nat, \aap, \keywords, \apjs, \mnras, \procspie, \titlerunning, \araa, \authorrunning, {acknowledgements}]; 1 missing file[raa.cls].
80734 2013-03-15 03:23:16 /0904/0904.2607 2920000[\xyoption]; 1 missing file[xy.sty].
80735 2013-03-15 03:22:48 /0904/0904.2632 2410000[\listfiles].
80736 2013-03-15 03:22:41 /0904/0904.2651 1060000[\kword, \abst, \inst].
80737 2013-03-15 03:22:32 /0904/0904.2652 070000[\captionsamerican, \extrasenglish, \dateamerican, \noextrasenglish, \extrasamerican, \dateenglish, \captionsenglish].
80738 2013-03-15 03:22:26 /0904/0904.2638 14120000[\drawedge, \drawloop, \gasset, \weakuntil, \scope, \always, \eventually, \false, \node, \nextt, \true]; 1 missing file[temporal.sty].
80739 2013-03-15 03:22:20 /0904/0904.2639 110000[\cortext].
80740 2013-03-15 03:22:09 /0904/0904.2633 150000[\TheSbox, {Sbox}].
80741 2013-03-15 03:21:59 /0904/0904.2637 110000[\Section].
80742 2013-03-15 03:21:53 /0904/0904.2601 22370000[Align, {sideways}, \txt, \xymatrix, \ar]; 1 missing file[sublabel.sty].
80743 2013-03-15 03:21:45 /0904/0904.2623 30110000[\Xcal, \sgn, \eq, \inner, \Eb, \argmin, \Ycal, \argmax, \nbr]; 1 missing file[tiberio.sty].
80744 2013-03-15 03:21:43 /0904/0904.2624 820000[\endxy, \xy].
80745 2013-03-15 03:20:45 /0904/0904.2600 530000[\mathds, \subfloat, \subref].
80746 2013-03-15 03:20:38 /0904/0904.2615 12100000[{acknowledgments}, \firstsection, \ls, \iffontfound, \affiliation, \ns, \checkfont]; 1 missing file[cupconf.cls].
80747 2013-03-15 03:20:18 /0904/0904.2618 140000[\kword, \abst, \inst, \citen].
80748 2013-03-15 03:20:11 /0904/0904.2567 3310000[{comment}].
80749 2013-03-15 03:20:07 /0904/0904.2599 6160000[\square, \nonumsection, \fpage, \fcaption, {sidewaystable}, \textlineskip, \tcaption, \publisher, \copyrightheading, \fnt, \alphfootnote, \keywords, \fnm, \abstracts, \runninghead, \communicate].
80750 2013-03-15 03:19:50 /0904/0904.2581 11370000[\SetAlgoSkip, {algorithm}, \LowPassFilter, \Append, \restylealgo, \SetInd, \error, \If, \For, \SetLine, \iter, \FourierProj, \lForEach, \KwIn, \KwTo, \InterpolationWeight, \CondProb, \GridNeighbors, \MedianValue, \RandomContrast, \eIf, \ForEach, \KwOut,
80751 2013-03-15 03:19:47 /0904/0904.2590 0230000[\apj, \inst, \accepted, \Month, \pasj, \apjl, \publonline, \email, \pasp, \titlerunning, \fnmsep, \authorrunning, \received, \Issue, \aj, \Yearsubmission, \institute, \Yearpublication, \Volume, \apjs, \mnras, \Pagespan, \acknowledgements].
80752 2013-03-15 03:19:06 /0904/0904.2548 9140000[\FloatBarrier].
80753 2013-03-15 03:18:54 /0904/0904.2562 1860000[Align, \xymatrix, \ar]; 1 missing file[xy.sty].
80754 2013-03-15 03:18:53 /0904/0904.2566 210000[\text].
80755 2013-03-15 03:18:35 /0904/0904.2568 080000[\affil, \aj, \pasp, \arcsec, \aaps, \acknowledgements]; 1 missing file[asp2006.sty].
80756 2013-03-15 03:18:30 /0904/0904.2570 1180000[\apj, \citep, \pasj, \aap, \micron, \Accepted, \email, \arcsec, \KeyWords, \aj, \altaffilmark, \Received, \mnras, \FigureFile, \altaffiltext, \citet, \farcs, \SetRunningHead]; 1 missing file[pasj00.cls].
80757 2013-03-15 03:18:30 /0904/0904.2571 020000[{hangparas}]; 1 missing file[hanging.sty].
80758 2013-03-15 03:18:23 /0904/0904.2556 3510000[\geometry].
80759 2013-03-15 03:18:18 /0904/0904.2514 63570000[{overpic}, \fint]; 1 missing file[esint.sty].
80760 2013-03-15 03:17:59 /0904/0904.2565 410000[\theappendix].
80761 2013-03-15 03:17:48 /0904/0904.2546 11100000[\comby, \catchline, \tbl, \keywords, \colrule, {history}, \botrule, \toprule, \received]; 1 missing file[ws.sty].
80762 2013-03-15 03:17:30 /0904/0904.2541 010000[\theappendix].
80763 2013-03-15 03:17:30 /0904/0904.2549 2160000[\resumen, \indexauthor, \shortauthor, \dateenglish, \altaffilmark, {changemargin}, \extrasenglish, \listofauthors, \shorttitle, \addkeyword, \altaffiltext, \fulladdresses, \captionsenglish].
80764 2013-03-15 03:17:29 /0904/0904.2542 220000[\jupiter]; 1 missing file[marvosym.sty].
80765 2013-03-15 03:17:21 /0904/0904.2533 6050000[Align, \xymatrix, \niplus, \ar]; 1 missing file[xy.sty].
80766 2013-03-15 03:17:16 /0904/0904.2539 3310000[\cortext].
80767 2013-03-15 03:17:10 /0904/0904.2530 4510000[\extrarowheight].
80768 2013-03-15 03:17:02 /0904/0904.2524 820000[\jupiter]; 1 missing file[marvosym.sty].
80769 2013-03-15 03:16:44 /0904/0904.2498 8710000[\setmarginsrb].
80770 2013-03-15 03:16:33 /0904/0904.2517 1730000[\theappendix, \refcite]; 1 missing file[ws.sty].
80771 2013-03-15 03:16:08 /0904/0904.2532 030000[\extrasenglish, \dateenglish, \captionsenglish].
80772 2013-03-15 03:16:06 /0904/0904.2521 14220000[{exas}, \titlecomment, \implies, {exa}, \mathfrak, \address, \email, \subjclass, \text, {defi}, {lem}, {thm}, {cor}, {prop}, \mathbb, \lmcsheading, \vpageref, \qed, \keywords, \vref, {rem}, {proof}]; 1 missing file[LMCS.cls].
80773 2013-03-15 03:16:02 /0904/0904.2499 183880000[\slashed, \subref].
80774 2013-03-15 03:16:01 /0904/0904.2519 940000[Align, \xymatrix, \ar]; 1 missing file[xy.sty].
80775 2013-03-15 03:15:11 /0904/0904.2505 2030000[\CJKchar, {CJK*}]; 1 missing file[CJK.sty].
80776 2013-03-15 03:14:52 /0904/0904.2443 14640000[\titlecontents, \titlerule, \contentslabel, \contentspage].
80777 2013-03-15 03:13:59 /0904/0904.2489 3110000[\geometry].
80778 2013-03-15 03:13:18 /0904/0904.2502 230000[\mr, \br, \ead].
80779 2013-03-15 03:13:06 /0904/0904.2486 42200000[\endxy, \dir, \Y@ybase, \xy, \ar, \X@xbase]; 9 missing files[xycurve.sty, xymatrix.sty, xyline.sty, xyarrow.sty, xycmtip.sty, xycolor.sty, xyrotate.sty, xyframe.sty, xygraph.sty].
80780 2013-03-15 03:13:02 /0904/0904.2432 72130000[Align, \xymatrix, \ar]; 1 missing file[xy.sty].
80781 2013-03-15 03:12:22 /0904/0904.2480 210000[{comment}].
80782 2013-03-15 03:12:17 /0904/0904.2490 530000[\address, \email]; 1 missing file[OSAmeet09_arxiv.sty].
80783 2013-03-15 03:11:38 /0904/0904.2466 640000[\citeonline, {keywords}, \PARstart, {biography}]; 1 missing file[IEEEtran.cls].
80784 2013-03-15 03:10:44 /0904/0904.2441 2840000[{IEEEkeywords}, \IEEEauthorblockA, \IEEEauthorblockN, {IEEEproof}]; 1 missing file[IEEEtran.cls].
80785 2013-03-15 03:10:38 /0904/0904.2458 150000[\ShortTitle, \email, \FullConference, \pos, \speaker]; 1 missing file[PoS.cls].
80786 2013-03-15 03:10:05 /0904/0904.2435 1210000[\FloatBarrier].
80787 2013-03-15 03:09:52 /0904/0904.2449 110000[\unit].
80788 2013-03-15 03:09:32 /0904/0904.2416 83360000[\xybox, \xymatrix, \xy, \endxy, \xyoption, \xylattice, Align, \adots, \ar]; 1 missing file[xy.sty].
80789 2013-03-15 03:09:21 /0904/0904.2401 940000[\extrasenglish, \geometry, \dateenglish, \captionsenglish].
80790 2013-03-15 03:08:36 /0904/0904.2418 2810000[\theappendix].
80791 2013-03-15 03:08:33 /0904/0904.2411 240000[\ack, \jpcs, \ead].
80792 2013-03-15 03:08:30 /0904/0904.2430 020000[\PACS]; 1 missing file[size11.clo.sty].
80793 2013-03-15 03:08:20 /0904/0904.2384 39120000[{psmatrix}, Align].
80794 2013-03-15 03:08:15 /0904/0904.2406 14260000[\smaller].
80795 2013-03-15 03:07:29 /0904/0904.2391 510000[\subfiguretopcaptrue].
80796 2013-03-15 03:07:19 /0904/0904.2392 160000[\pacs, \inst, \shorttitle, \shortauthor, \institute, \acknowledgments]; 1 missing file[epl2.cls].
80797 2013-03-15 03:07:04 /0904/0904.2395 660000[\gtrsim, \psfig, \bodymatter, \refcite, \keywords]; 1 missing file[ws.sty].
80798 2013-03-15 03:07:03 /0904/0904.2357 2120000[\blackbox, \newsymbol].
80799 2013-03-15 03:06:56 /0904/0904.2386 3910000[\hepth].
80800 2013-03-15 03:06:46 /0904/0904.2389 1070000[\theappendix, {acknowledgments}, \affil, \dropcap, {materials}, {article}, \keywords]; 1 missing file[pnastwobis.cls].
<<< >>>

[0] [200] [400] [600] [800] [1000] [1200] [1400] [1600] [1800] [2000] [2200] [2400] [2600] [2800] [3000] [3200] [3400] [3600] [3800] [4000] [4200] [4400] [4600] [4800] [5000] [5200] [5400] [5600] [5800] [6000] [6200] [6400] [6600] [6800] [7000] [7200] [7400] [7600] [7800] [8000] [8200] [8400] [8600] [8800] [9000] [9200] [9400] [9600] [9800] [10000] [10200] [10400] [10600] [10800] [11000] [11200] [11400] [11600] [11800] [12000] [12200] [12400] [12600] [12800] [13000] [13200] [13400] [13600] [13800] [14000] [14200] [14400] [14600] [14800] [15000] [15200] [15400] [15600] [15800] [16000] [16200] [16400] [16600] [16800] [17000] [17200] [17400] [17600] [17800] [18000] [18200] [18400] [18600] [18800] [19000] [19200] [19400] [19600] [19800] [20000] [20200] [20400] [20600] [20800] [21000] [21200] [21400] [21600] [21800] [22000] [22200] [22400] [22600] [22800] [23000] [23200] [23400] [23600] [23800] [24000] [24200] [24400] [24600] [24800] [25000] [25200] [25400] [25600] [25800] [26000] [26200] [26400] [26600] [26800] [27000] [27200] [27400] [27600] [27800] [28000] [28200] [28400] [28600] [28800] [29000] [29200] [29400] [29600] [29800] [30000] [30200] [30400] [30600] [30800] [31000] [31200] [31400] [31600] [31800] [32000] [32200] [32400] [32600] [32800] [33000] [33200] [33400] [33600] [33800] [34000] [34200] [34400] [34600] [34800] [35000] [35200] [35400] [35600] [35800] [36000] [36200] [36400] [36600] [36800] [37000] [37200] [37400] [37600] [37800] [38000] [38200] [38400] [38600] [38800] [39000] [39200] [39400] [39600] [39800] [40000] [40200] [40400] [40600] [40800] [41000] [41200] [41400] [41600] [41800] [42000] [42200] [42400] [42600] [42800] [43000] [43200] [43400] [43600] [43800] [44000] [44200] [44400] [44600] [44800] [45000] [45200] [45400] [45600] [45800] [46000] [46200] [46400] [46600] [46800] [47000] [47200] [47400] [47600] [47800] [48000] [48200] [48400] [48600] [48800] [49000] [49200] [49400] [49600] [49800] [50000] [50200] [50400] [50600] [50800] [51000] [51200] [51400] [51600] [51800] [52000] [52200] [52400] [52600] [52800] [53000] [53200] [53400] [53600] [53800] [54000] [54200] [54400] [54600] [54800] [55000] [55200] [55400] [55600] [55800] [56000] [56200] [56400] [56600] [56800] [57000] [57200] [57400] [57600] [57800] [58000] [58200] [58400] [58600] [58800] [59000] [59200] [59400] [59600] [59800] [60000] [60200] [60400] [60600] [60800] [61000] [61200] [61400] [61600] [61800] [62000] [62200] [62400] [62600] [62800] [63000] [63200] [63400] [63600] [63800] [64000] [64200] [64400] [64600] [64800] [65000] [65200] [65400] [65600] [65800] [66000] [66200] [66400] [66600] [66800] [67000] [67200] [67400] [67600] [67800] [68000] [68200] [68400] [68600] [68800] [69000] [69200] [69400] [69600] [69800] [70000] [70200] [70400] [70600] [70800] [71000] [71200] [71400] [71600] [71800] [72000] [72200] [72400] [72600] [72800] [73000] [73200] [73400] [73600] [73800] [74000] [74200] [74400] [74600] [74800] [75000] [75200] [75400] [75600] [75800] [76000] [76200] [76400] [76600] [76800] [77000] [77200] [77400] [77600] [77800] [78000] [78200] [78400] [78600] [78800] [79000] [79200] [79400] [79600] [79800] [80000] [80200] [80400] [80600] [80800] [81000] [81200] [81400] [81600] [81800] [82000] [82200] [82400] [82600] [82800] [83000] [83200] [83400] [83600] [83800] [84000] [84200] [84400] [84600] [84800] [85000] [85200] [85400] [85600] [85800] [86000] [86200] [86400] [86600] [86800] [87000] [87200] [87400] [87600] [87800] [88000] [88200] [88400] [88600] [88800] [89000] [89200] [89400] [89600] [89800] [90000] [90200] [90400] [90600] [90800] [91000] [91200] [91400] [91600] [91800] [92000] [92200] [92400] [92600] [92800] [93000] [93200] [93400] [93600] [93800] [94000] [94200] [94400] [94600] [94800] [95000] [95200] [95400] [95600] [95800] [96000] [96200] [96400] [96600] [96800] [97000] [97200] [97400] [97600] [97800] [98000] [98200] [98400] [98600] [98800] [99000] [99200] [99400] [99600] [99800] [100000] [100200] [100400] [100600] [100800] [101000] [101200] [101400] [101600] [101800] [102000] [102200] [102400] [102600] [102800] [103000] [103200] [103400] [103600] [103800] [104000] [104200] [104400] [104600] [104800] [105000] [105200] [105400] [105600] [105800] [106000] [106200] [106400] [106600] [106800] [107000] [107200] [107400] [107600] [107800] [108000] [108200] [108400] [108600] [108800] [109000] [109200] [109400] [109600] [109800] [110000] [110200] [110400] [110600] [110800] [111000] [111200] [111400] [111600] [111800] [112000] [112200] [112400] [112600] [112800] [113000] [113200] [113400] [113600] [113800] [114000] [114200] [114400] [114600] [114800] [115000] [115200] [115400] [115600] [115800] [116000] [116200] [116400] [116600] [116800] [117000] [117200] [117400] [117600] [117800] [118000] [118200] [118400] [118600] [118800] [119000] [119200] [119400] [119600] [119800] [120000] [120200] [120400] [120600] [120800] [121000] [121200] [121400] [121600] [121800] [122000] [122200] [122400] [122600] [122800] [123000] [123200] [123400] [123600] [123800] [124000] [124200] [124400] [124600] [124800] [125000] [125200] [125400] [125600] [125800] [126000] [126200] [126400] [126600] [126800] [127000] [127200] [127400] [127600] [127800] [128000] [128200] [128400] [128600] [128800] [129000] [129200] [129400] [129600] [129800] [130000] [130200] [130400] [130600] [130800] [131000] [131200] [131400] [131600] [131800] [132000] [132200] [132400] [132600] [132800] [133000] [133200] [133400] [133600] [133800] [134000] [134200] [134400] [134600] [134800] [135000] [135200] [135400] [135600] [135800] [136000] [136200] [136400] [136600] [136800] [137000] [137200] [137400] [137600] [137800] [138000] [138200] [138400] [138600] [138800] [139000] [139200] [139400] [139600] [139800] [140000] [140200] [140400] [140600] [140800] [141000] [141200] [141400] [141600] [141800] [142000] [142200] [142400] [142600] [142800] [143000] [143200] [143400] [143600] [143800] [144000] [144200] [144400] [144600] [144800] [145000] [145200] [145400] [145600] [145800] [146000] [146200] [146400] [146600] [146800] [147000] [147200] [147400] [147600] [147800] [148000] [148200] [148400] [148600] [148800] [149000] [149200] [149400] [149600] [149800] [150000] [150200] [150400] [150600] [150800] [151000] [151200] [151400] [151600] [151800] [152000] [152200] [152400] [152600] [152800] [153000] [153200] [153400] [153600] [153800] [154000] [154200] [154400] [154600] [154800] [155000] [155200] [155400] [155600] [155800] [156000] [156200] [156400] [156600] [156800] [157000] [157200] [157400] [157600] [157800] [158000] [158200] [158400] [158600] [158800] [159000] [159200] [159400] [159600] [159800] [160000] [160200] [160400] [160600] [160800] [161000] [161200] [161400] [161600] [161800] [162000] [162200] [162400] [162600] [162800] [163000] [163200] [163400] [163600] [163800] [164000] [164200] [164400] [164600]
 
  The service has been written by
Heinrich Stamerjohanns